Hauptseite
METAR-TAF:

METAR-TAF

Flughäfen :

RAF

Holbeach, England

Breite: 52-52N, Länge: 000-09E, Höhe: 3 m

Beobachtung

Neuester Wetterbericht von vor 45 Minuten, um 12:50 UTC
Wind 12 kt aus West/Südwest
Temperatur 20°C
Luftfeuchtigkeit 49%
Luftdruck 1015 hPa
Sichtweite 10 km oder mehr
Aufgelockert bewölkt in der Höhe von 4500 ft

METAR: EGYH 231250Z 25012KT 9999 SCT045 20/09 Q1015 BLU

Zeit: 14:35 (13:35 UTC)


TAF: fehlend

Wetterbeobachtungen und Prognosen von mehr als 4000 Flughäfen (METAR und TAF Bericht).

Die verfügbaren Stationen werden durch gelbe und rote Markierungen auf der Karte dargestellt.

Führen Sie die Maus auf sie, um den Namen der Station zu sehen.

Darauf klicken, um die Beobachtung von Wetterbeobachtungen und Prognosen zu sehen.

Um die Karte zu ändern : klicken Sie auf den grünen Tasten mit einem schwarzen Kreuz Zum Vergrößern, auf den grünen Button mit einem Gedankenstrich zu verkleinern, oder auf die grünen Pfeile für benachbarte Karten.


METAR-TAF: